[TLELIST] Archives

 

[list_settings.list_name] Current TLEs

August 21st 2013 PDT

HST 1 20580U 90037B 13232.38298260 .00001430 00000-0 89240-4 0 3082 2 20580 028.4693 211.9198 0003083 319.7053 166.1107 15.03848148 79372 ISS (ZARYA) 1 25544U 98067A 13233.24184664 .00008437 00000-0 15346-3 0 4334 2 25544 051.6489 145.9890 0004126 342.7791 154.7735 15.50403484844795 CXO 1 25867U 99040B 13234.04479791 -.00000010 00000-0 00000+0 0 9399 2 25867 075.8148 335.7352 8494201 276.9834 000.7042 00.37804162 10788 ____________________________________________________________________ These 2-Line ...Continue Reading

[list_settings.list_name] Current TLEs

August 20th 2013 PDT

HST 1 20580U 90037B 13231.11422559 .00001471 00000-0 92183-4 0 3076 2 20580 028.4693 220.2398 0003038 306.5329 136.8874 15.03844216 79172 ISS (ZARYA) 1 25544U 98067A 13232.50520833 .00008678 00000-0 15769-3 0 4273 2 25544 051.6486 149.6402 0004258 339.1747 004.1666 15.50390936844674 CXO 1 25867U 99040B 13234.04479791 -.00000010 00000-0 00000+0 0 9399 2 25867 075.8148 335.7352 8494201 276.9834 000.7042 00.37804162 10788 ____________________________________________________________________ These 2-Line ...Continue Reading

[list_settings.list_name] Current TLEs

August 19th 2013 PDT

HST 1 20580U 90037B 13231.11422559 .00001471 00000-0 92183-4 0 3076 2 20580 028.4693 220.2398 0003038 306.5329 136.8874 15.03844216 79172 ISS (ZARYA) 1 25544U 98067A 13231.43181836 .00009110 00000-0 16523-3 0 4215 2 25544 051.6475 154.9600 0004180 335.1118 133.2903 15.50373128844518 CXO 1 25867U 99040B 13231.39883085 .00000169 00000-0 00000+0 0 9382 2 25867 075.7987 335.8969 8500064 276.9863 000.6082 00.37802070 10778 ____________________________________________________________________ These 2-Line ...Continue Reading

[list_settings.list_name] Current TLEs

August 18th 2013 PDT

HST 1 20580U 90037B 13229.46387500 .00001271 00000-0 77992-4 0 3065 2 20580 028.4692 231.0623 0002991 288.8196 202.2593 15.03840956 78939 ISS (ZARYA) 1 25544U 98067A 13230.50572917 .00008727 00000-0 15874-3 0 4150 2 25544 051.6491 159.5490 0003866 331.4506 004.7501 15.50354767844361 CXO 1 25867U 99040B 13231.39883085 .00000169 00000-0 00000+0 0 9382 2 25867 075.7987 335.8969 8500064 276.9863 000.6082 00.37802070 10778 ____________________________________________________________________ These 2-Line ...Continue Reading

[list_settings.list_name] Current TLEs

August 17th 2013 PDT

HST 1 20580U 90037B 13228.40279465 .00001015 00000-0 59818-4 0 3050 2 20580 028.4692 238.0199 0002977 275.1738 220.0796 15.03839355 78775 ISS (ZARYA) 1 25544U 98067A 13229.18148438 .00006602 00000-0 12218-3 0 4079 2 25544 051.6490 166.1112 0003693 325.2245 175.1602 15.50322921844164 CXO 1 25867U 99040B 13231.39883085 .00000169 00000-0 00000+0 0 9382 2 25867 075.7987 335.8969 8500064 276.9863 000.6082 00.37802070 10778 ____________________________________________________________________ These 2-Line ...Continue Reading

[list_settings.list_name] Current TLEs

August 16th 2013 PDT

HST 1 20580U 90037B 13227.12843634 .00001256 00000-0 76933-4 0 3046 2 20580 028.4692 246.3765 0002949 260.5646 161.9577 15.03834389 78571 ISS (ZARYA) 1 25544U 98067A 13228.34327774 .00006317 00000-0 11731-3 0 4025 2 25544 051.6493 170.2654 0003755 321.4054 177.7343 15.50309642844030 CXO 1 25867U 99040B 13228.75311275 .00000147 00000-0 00000+0 0 9370 2 25867 075.7834 336.0517 8503070 276.9780 000.5948 00.37798731 10766 ____________________________________________________________________ These 2-Line ...Continue Reading

[list_settings.list_name] Current TLEs

August 15th 2013 PDT

HST 1 20580U 90037B 13227.12843634 .00001256 00000-0 76933-4 0 3046 2 20580 028.4692 246.3765 0002949 260.5646 161.9577 15.03834389 78571 ISS (ZARYA) 1 25544U 98067A 13227.50003596 .00006129 00000-0 11410-3 0 3951 2 25544 051.6496 174.4445 0003641 317.6486 152.1714 15.50297701843903 CXO 1 25867U 99040B 13228.75311275 .00000147 00000-0 00000+0 0 9370 2 25867 075.7834 336.0517 8503070 276.9780 000.5948 00.37798731 10766 ____________________________________________________________________ These 2-Line ...Continue Reading

[list_settings.list_name] Current TLEs

August 14th 2013 PDT

HST 1 20580U 90037B 13225.48382090 .00001129 00000-0 67958-4 0 3032 2 20580 028.4693 257.1611 0002918 242.1767 259.1810 15.03829494 78333 ISS (ZARYA) 1 25544U 98067A 13226.46708531 .00005423 00000-0 10194-3 0 3882 2 25544 051.6499 179.5628 0003632 314.3421 146.7209 15.50281819843741 CXO 1 25867U 99040B 13226.11109383 .00000031 00000-0 00000+0 0 9353 2 25867 075.7716 336.1941 8504843 276.9749 001.0772 00.37802203 10751 ____________________________________________________________________ These 2-Line ...Continue Reading

[list_settings.list_name] Current TLEs

August 13th 2013 PDT

HST 1 20580U 90037B 13224.13664786 .00000996 00000-0 58497-4 0 3026 2 20580 028.4693 265.9951 0002917 226.5459 167.1250 15.03827766 78123 ISS (ZARYA) 1 25544U 98067A 13225.43428438 .00004515 00000-0 86259-4 0 3824 2 25544 051.6492 184.6814 0003668 311.3216 141.8671 15.50265652843584 CXO 1 25867U 99040B 13226.11109383 .00000031 00000-0 00000+0 0 9353 2 25867 075.7716 336.1941 8504843 276.9749 001.0772 00.37802203 10751 ____________________________________________________________________ These 2-Line ...Continue Reading

[list_settings.list_name] Current TLEs

August 12th 2013 PDT

HST 1 20580U 90037B 13224.13664786 .00000996 00000-0 58497-4 0 3026 2 20580 028.4693 265.9951 0002917 226.5459 167.1250 15.03827766 78123 ISS (ZARYA) 1 25544U 98067A 13224.34926888 -.00008944 00000-0 -14762-3 0 3758 2 25544 051.6488 190.0600 0003199 307.4965 206.2822 15.50239401843418 CXO 1 25867U 99040B 13226.10799489 .00000031 00000-0 00000+0 0 9365 2 25867 075.7716 336.1927 8504866 276.9758 000.6543 00.37801099 10753 ____________________________________________________________________ These 2-Line ...Continue Reading
  • This mailing list is a public mailing list - anyone may join or leave, at any time.
  • This mailing list is announce-only.

International Space Station (ISS) / Hubble Space Telescope (HST) / Chandra X-Ray Observatory Orbital Data via EMAIL

Privacy Policy:

Private list